Temperature
2 3 2 2 2 2 1 1 1 2 1 1 0 -1 -1 -1 -1 -2 -2 -2 -3 -3 -3 -3 -3 -4 -4 -4 -4 -4 -4 -4 -4 -4 -4 -4 -4 -4 -4 -4 -4 -4 -4 -4
1 2 1 1 1 1 1 1 1 0 -0 -1 -1 -1 -2 -2 -3 -3 -3 -4 -4 -4 -4 -4 -4 -4 -4 -4 -4 -4 -4 -4 -4 -4 -4 -5 -5 -5 -5 -5 -5 -5 -5 -5
1 1 1 -0 -1 -1 -1 -1 -1 -1 -1 -2 -2 -3 -3 -3 -4 -4 -5 -5 -5 -5 -5 -5 -5 -5 -5 -5 -5 -5 -5 -5 -5 -5 -5 -5 -5 -5 -5 -5 -5 -5 -5 -6
-0 0 -0 -1 -1 -1 -2 -2 -3 -3 -3 -3 -3 -3 -4 -5 -5 -6 -6 -6 -6 -5 -5 -5 -5 -5 -5 -5 -6 -6 -6 -6 -6 -6 -6 -6 -6 -6 -6 -6 -6 -6 -6 -6
-1 -1 -1 -1 -2 -3 -3 -3 -5 -4 -4 -5 -5 -4 -5 -5 -6 -6 -6 -6 -6 -6 -6 -6 -6 -6 -6 -6 -6 -6 -6 -6 -6 -6 -6 -6 -6 -6 -6 -6 -6 -6 -7 -7
-1 -1 -1 -3 -4 -4 -4 -4 -6 -6 -6 -6 -6 -5 -6 -7 -7 -7 -7 -7 -7 -7 -7 -7 -7 -7 -7 -7 -7 -7 -7 -7 -7 -7 -7 -7 -7 -7 -7 -7 -7 -7 -7 -7
-2 -2 -3 -5 -5 -4 -4 -5 -7 -6 -7 -7 -7 -7 -7 -8 -8 -8 -8 -8 -8 -8 -8 -8 -7 -7 -7 -7 -7 -7 -7 -7 -7 -7 -7 -7 -7 -7 -7 -8 -8 -8 -8 -8
-3 -3 -4 -6 -6 -6 -7 -7 -7 -7 -8 -8 -8 -8 -8 -9 -9 -9 -8 -8 -8 -8 -8 -8 -8 -8 -8 -8 -8 -8 -8 -8 -8 -8 -8 -8 -8 -8 -8 -8 -8 -8 -8 -8
-5 -5 -6 -6 -7 -7 -7 -8 -8 -8 -9 -9 -9 -9 -9 -10 -10 -9 -9 -9 -9 -9 -9 -9 -9 -9 -9 -8 -8 -8 -9 -8 -8 -8 -9 -9 -9 -9 -9 -9 -9 -9 -9 -9
-6 -6 -7 -7 -8 -8 -8 -9 -9 -9 -9 -9 -10 -10 -10 -10 -10 -10 -10 -10 -10 -9 -9 -9 -9 -9 -9 -9 -9 -9 -9 -9 -9 -9 -9 -9 -9 -9 -9 -9 -9 -9 -9 -9
-7 -8 -8 -8 -8 -9 -9 -9 -9 -10 -10 -10 -10 -11 -11 -11 -11 -11 -10 -10 -10 -10 -10 -10 -10 -10 -10 -10 -10 -10 -10 -10 -10 -10 -10 -10 -10 -10 -9 -9 -9 -9 -9 -9
-9 -9 -9 -9 -9 -9 -10 -10 -10 -10 -11 -11 -11 -11 -12 -12 -11 -11 -11 -11 -10 -10 -10 -10 -10 -10 -10 -10 -10 -10 -10 -10 -10 -10 -10 -10 -10 -10 -10 -10 -10 -10 -10 -10
-9 -9 -9 -9 -10 -10 -10 -11 -11 -11 -11 -12 -12 -12 -12 -12 -12 -12 -11 -11 -11 -11 -11 -11 -11 -10 -11 -11 -11 -11 -11 -11 -11 -11 -11 -11 -11 -11 -11 -11 -11 -10 -10 -10
-10 -11 -11 -11 -11 -11 -11 -12 -12 -12 -12 -12 -12 -12 -12 -12 -12 -12 -12 -12 -12 -11 -11 -11 -11 -11 -11 -11 -11 -11 -11 -11 -11 -11 -11 -11 -11 -11 -11 -11 -11 -11 -11 -11
-11 -12 -12 -12 -12 -12 -12 -12 -12 -12 -12 -12 -13 -13 -13 -12 -12 -12 -12 -12 -12 -12 -12 -12 -12 -12 -12 -12 -12 -12 -12 -12 -12 -12 -12 -12 -12 -11 -11 -11 -11 -11 -11 -11
-12 -12 -12 -12 -13 -13 -13 -13 -13 -13 -13 -13 -13 -13 -13 -13 -13 -13 -12 -12 -13 -12 -12 -12 -12 -12 -12 -12 -12 -12 -12 -12 -12 -12 -12 -12 -12 -12 -12 -12 -11 -11 -11 -11
-13 -13 -13 -13 -13 -13 -13 -13 -14 -14 -14 -13 -13 -13 -13 -13 -13 -13 -13 -13 -13 -13 -13 -13 -13 -13 -13 -13 -13 -13 -12 -12 -12 -12 -12 -12 -12 -12 -12 -12 -12 -12 -12 -12
-13 -13 -14 -14 -14 -14 -14 -13 -14 -14 -14 -14 -14 -14 -14 -14 -14 -14 -13 -13 -13 -13 -13 -13 -13 -13 -13 -13 -13 -13 -13 -13 -12 -12 -12 -12 -12 -12 -12 -12 -12 -12 -12 -12
-13 -14 -14 -14 -14 -14 -14 -14 -14 -14 -14 -14 -14 -14 -14 -14 -14 -14 -14 -14 -14 -14 -13 -13 -14 -13 -13 -13 -13 -13 -13 -13 -13 -13 -13 -13 -13 -12 -12 -13 -12 -12 -12 -12
-14 -14 -14 -14 -14 -14 -14 -14 -14 -14 -14 -14 -14 -14 -14 -14 -14 -14 -14 -14 -14 -14 -14 -14 -14 -14 -14 -14 -14 -13 -13 -13 -13 -13 -13 -13 -13 -13 -13 -13 -13 -13 -13 -13
-14 -14 -14 -14 -14 -14 -14 -14 -14 -14 -14 -14 -14 -15 -15 -14 -14 -14 -15 -14 -14 -14 -14 -14 -14 -14 -14 -14 -14 -14 -14 -14 -13 -13 -13 -13 -13 -13 -13 -13 -13 -13 -13 -13
-14 -14 -14 -14 -14 -14 -14 -14 -14 -15 -15 -15 -15 -15 -15 -15 -15 -15 -15 -15 -15 -15 -15 -15 -15 -15 -15 -15 -14 -14 -14 -14 -14 -14 -14 -14 -14 -14 -14 -14 -14 -14 -14 -14
-15 -15 -15 -15 -15 -15 -15 -15 -15 -15 -15 -15 -15 -15 -15 -15 -15 -15 -15 -15 -15 -15 -15 -15 -15 -15 -15 -15 -15 -15 -15 -15 -14 -14 -14 -14 -14 -14 -14 -14 -14 -14 -14 -14
-15 -15 -15 -15 -15 -15 -15 -15 -15 -15 -15 -15 -15 -16 -16 -15 -15 -15 -15 -15 -15 -15 -15 -15 -15 -15 -15 -15 -15 -15 -15 -15 -15 -15 -15 -15 -15 -15 -15 -15 -15 -14 -14 -14
-15 -15 -15 -15 -15 -15 -16 -15 -15 -15 -15 -16 -16 -16 -16 -16 -16 -16 -16 -15 -16 -16 -16 -16 -16 -16 -16 -16 -16 -16 -16 -16 -16 -16 -16 -16 -15 -15 -15 -15 -15 -15 -15 -14
-16 -16 -16 -16 -16 -16 -16 -16 -16 -16 -16 -16 -16 -16 -16 -16 -16 -16 -16 -16 -16 -16 -16 -16 -16 -16 -16 -16 -16 -16 -16 -16 -16 -16 -16 -16 -16 -16 -15 -15 -15 -15 -15 -15
-16 -16 -16 -16 -16 -16 -16 -17 -17 -17 -17 -17 -17 -16 -16 -16 -16 -16 -16 -16 -16 -16 -16 -16 -16 -16 -16 -16 -16 -16 -16 -16 -16 -16 -16 -16 -16 -16 -16 -16 -15 -15 -15 -15
Wind_Speed
9 9 6 7 7 5 7 7 7 9 8 7 5 5 4 4 3 3 3 3 2 2 1 1 1 2 2 2 2 2 2 2 2 2 2 3 3 2 2 2 2 2 2 3
8 6 5 8 7 7 8 7 9 10 10 6 5 6 6 5 4 4 4 4 4 3 2 1 1 1 2 2 1 1 1 1 1 1 2 2 2 2 2 2 2 2 3 3
6 5 6 6 4 3 3 3 4 7 8 7 7 7 5 5 5 5 5 5 4 3 2 1 0 1 1 1 1 1 1 1 1 1 2 2 2 2 2 2 2 2 3 3
5 5 6 2 3 2 2 2 4 5 7 8 8 7 3 5 6 6 5 5 4 3 3 2 1 0 1 1 1 1 1 1 1 2 2 1 2 2 2 2 2 3 3 4
3 5 5 2 4 5 3 3 7 7 9 9 9 5 3 8 8 6 5 4 4 3 2 2 1 0 1 1 1 1 1 1 2 2 2 2 2 2 2 2 2 3 3 3
3 4 4 3 6 7 3 2 8 8 8 10 9 5 3 8 9 8 7 4 4 4 3 2 1 0 1 1 1 1 1 1 1 2 3 3 3 2 2 2 2 3 3 3
5 5 3 4 7 5 2 4 8 7 7 7 5 5 6 8 8 7 6 5 4 4 3 2 1 1 1 1 1 1 1 1 1 2 3 3 2 2 2 2 2 3 3 3
3 4 4 6 5 3 4 6 6 7 7 7 6 7 7 7 7 7 6 5 4 4 4 2 1 1 1 2 1 1 1 1 2 2 2 2 2 2 2 2 3 3 3 3
2 3 2 3 2 3 5 6 6 7 7 7 7 7 8 7 7 6 5 5 4 4 4 3 2 1 2 2 1 1 1 1 2 2 2 2 3 3 2 2 3 3 3 3
3 3 4 3 4 6 6 6 7 7 7 7 7 7 8 8 7 7 6 6 5 4 4 4 3 3 2 2 1 1 2 2 2 2 2 2 2 3 3 3 3 3 3 3
4 4 5 3 5 7 8 7 7 7 6 6 6 7 7 7 7 7 7 6 5 4 5 5 3 3 3 2 1 1 2 2 2 2 2 2 2 3 3 4 5 4 4 3
5 5 6 7 7 7 8 8 8 7 8 7 6 7 7 7 7 6 6 6 6 5 5 5 4 4 3 2 2 2 3 2 2 2 2 2 2 2 5 5 7 7 6 5
4 7 6 6 6 7 7 8 8 7 7 8 7 6 7 7 7 7 7 6 6 6 6 5 4 4 4 3 3 2 3 3 3 2 2 3 2 2 2 4 5 6 6 6
5 6 5 6 7 8 7 7 7 6 6 6 7 7 7 7 7 7 7 7 7 6 6 5 4 5 4 3 3 3 3 4 3 3 3 3 3 3 2 2 3 3 4 6
7 6 5 7 7 7 7 6 7 7 7 7 7 7 8 8 8 8 7 7 7 6 5 4 4 5 4 3 4 3 3 3 3 3 3 3 3 3 3 3 3 3 3 4
9 7 6 7 8 8 8 8 8 8 8 8 8 8 8 8 8 8 7 6 6 6 6 5 5 5 4 4 4 3 3 5 4 3 3 3 3 3 3 3 3 3 3 3
7 7 8 9 9 9 8 8 7 7 8 8 9 9 9 9 8 8 7 7 6 6 6 6 6 5 5 4 4 3 3 4 5 4 3 3 3 3 3 3 3 3 4 5
5 6 6 7 8 8 9 8 7 8 8 8 8 8 7 8 8 9 9 8 7 6 6 5 5 5 5 5 4 3 3 3 3 3 3 3 3 3 3 3 4 4 4 4
6 6 6 7 6 6 7 7 7 7 7 7 7 7 7 7 7 8 8 7 7 7 6 5 8 6 5 6 5 3 3 3 3 3 3 4 4 3 3 3 4 4 3 3
7 7 7 7 7 6 7 7 7 7 7 6 7 7 7 7 7 7 7 6 5 5 5 6 6 5 5 5 6 3 3 4 3 3 3 3 3 3 3 3 3 3 3 3
8 8 8 8 8 7 7 7 7 7 7 7 6 7 8 8 7 6 6 6 6 6 6 8 6 5 4 5 5 3 3 3 3 3 3 3 3 3 3 3 3 3 3 3
7 7 8 8 8 8 7 6 6 7 7 7 7 7 7 7 7 6 5 5 6 10 7 5 5 6 7 7 3 2 3 3 3 3 3 3 3 3 3 3 3 3 3 3
6 6 7 7 7 8 8 7 6 6 7 7 7 7 7 7 6 6 6 6 6 10 7 5 8 10 10 5 3 3 3 3 3 3 3 3 3 3 3 3 3 3 3 3
6 6 6 6 6 6 8 8 7 6 6 6 6 6 6 6 5 4 5 9 12 11 6 8 11 11 9 4 3 3 3 3 3 3 3 3 3 3 3 3 3 3 3 4
6 6 5 6 6 6 7 8 7 7 7 6 7 6 5 5 5 6 6 6 10 10 6 8 11 11 7 4 4 3 3 3 4 3 3 3 3 3 3 3 3 4 4 4
6 5 5 6 5 6 6 6 6 6 6 7 7 6 6 5 6 5 5 6 7 9 7 5 6 7 5 4 4 4 4 4 5 4 4 3 3 3 4 4 5 4 4 5
6 5 5 5 5 5 5 5 6 7 7 7 7 7 7 6 6 6 6 6 5 5 5 5 4 4 4 4 4 4 4 4 4 4 4 4 3 4 4 5 5 5 6 6
Wind_Direction
275 284 282 277 271 249 234 238 248 269 276 300 328 325 330 344 7 19 26 34 30 29 38 111 128 126 123 125 132 148 160 167 175 172 169 169 175 184 189 200 216 214 216 231
280 275 281 287 288 268 256 256 260 276 280 305 327 336 339 353 7 12 17 12 5 6 5 31 147 156 148 143 143 148 158 169 161 160 165 172 176 183 198 204 212 220 228 233
274 284 301 275 290 266 261 274 266 269 283 319 327 331 332 350 9 8 360 353 351 351 347 328 242 157 157 149 144 156 166 170 174 185 188 187 189 194 208 211 214 227 233 238
286 307 260 246 39 3 240 302 328 312 327 340 331 320 1 40 24 4 350 342 340 341 338 344 358 106 122 145 160 174 178 182 198 198 205 196 190 207 225 226 221 229 236 237
282 282 272 302 7 357 313 306 12 353 348 345 339 341 47 27 12 355 341 337 335 334 335 336 337 85 124 169 173 191 206 214 215 206 209 211 215 219 230 231 242 241 240 238
266 274 275 323 337 330 314 260 13 3 349 342 344 336 327 353 348 344 342 345 345 346 352 348 353 61 166 204 205 225 247 253 243 221 215 218 222 230 242 245 248 256 262 253
259 258 265 335 327 335 320 302 342 346 341 339 333 301 306 325 332 333 334 341 346 344 340 337 346 1 262 233 244 270 283 268 258 233 226 221 213 225 228 242 242 244 258 263
279 261 279 1 13 24 313 329 334 336 337 331 321 318 322 326 327 330 335 340 342 337 328 328 339 346 312 291 294 305 280 265 255 236 228 227 205 217 220 222 232 240 249 258
260 270 321 8 20 347 341 326 328 330 328 326 321 321 324 327 327 329 331 332 333 326 321 325 337 330 293 301 327 321 284 268 259 257 242 226 207 215 219 217 230 242 244 253
295 318 345 359 6 353 342 330 326 326 325 325 319 319 323 325 326 329 330 331 332 329 325 324 329 324 300 306 322 311 279 274 269 259 253 231 232 227 225 227 230 237 244 251
287 315 324 337 345 338 335 335 333 332 331 328 322 319 320 320 320 321 324 326 328 325 318 313 317 317 313 308 299 295 279 267 268 268 266 258 255 248 244 233 233 233 230 234
284 312 305 306 326 338 335 335 335 335 334 334 329 322 323 319 318 319 322 326 326 324 319 315 318 312 306 296 273 268 279 270 264 263 263 263 265 281 277 271 267 265 260 257
306 318 307 308 332 345 337 335 335 333 329 328 332 329 324 319 321 323 324 327 325 321 317 312 312 307 308 301 286 271 269 268 260 258 257 259 259 259 281 290 284 280 275 274
344 343 325 334 334 337 337 336 335 333 332 330 328 329 328 325 325 327 326 325 322 317 312 308 308 306 305 298 289 279 270 266 262 254 254 253 254 254 255 265 283 287 284 278
352 342 316 319 327 333 336 337 338 336 338 338 337 336 336 332 329 326 324 325 326 321 317 316 313 306 306 300 295 284 273 264 257 252 251 251 253 254 253 257 262 272 285 283
328 326 326 330 331 334 337 338 334 331 333 333 335 334 331 327 322 321 323 327 325 320 320 319 313 311 312 307 303 290 273 271 271 254 245 248 247 247 250 252 257 260 260 266
335 333 333 331 329 329 329 327 324 323 325 326 325 325 325 326 326 327 329 328 322 316 315 314 315 320 322 319 308 297 288 279 277 273 255 250 247 246 249 251 256 260 261 264
312 310 310 313 318 321 325 327 325 323 320 318 321 326 329 330 327 326 326 326 328 325 323 321 319 322 321 320 314 300 293 289 279 269 264 259 258 249 249 252 257 262 267 270
331 328 328 328 325 324 324 324 324 324 323 324 327 326 323 321 320 321 324 327 328 326 326 328 330 332 322 318 319 302 296 293 289 278 269 267 273 264 255 253 257 259 264 268
337 336 334 332 332 329 323 322 325 325 324 325 325 325 325 324 324 325 326 323 318 311 313 322 327 325 321 316 320 312 309 301 294 290 284 269 262 261 257 256 258 262 264 263
335 336 335 333 331 330 328 327 326 325 326 328 325 322 320 319 320 321 325 327 330 334 334 332 335 324 318 320 326 327 319 312 309 301 292 284 274 269 267 265 264 264 264 265
328 328 328 328 330 329 329 327 324 322 324 326 325 323 322 322 324 323 315 312 320 330 336 329 326 323 326 332 340 330 324 320 314 309 304 295 284 277 274 273 272 271 268 266
320 320 321 324 324 321 323 325 323 323 323 323 322 322 320 318 319 320 321 326 327 328 335 327 325 328 333 347 345 332 325 322 317 311 306 302 296 287 280 276 274 272 270 271
319 320 319 319 320 322 325 327 326 324 319 317 318 318 316 318 319 319 314 321 330 332 334 330 334 336 342 355 340 329 323 318 311 304 302 300 296 295 291 283 279 278 276 276
317 314 317 325 326 323 322 323 323 324 325 326 326 327 326 319 312 315 316 318 325 332 331 332 336 340 347 340 334 325 320 311 305 308 307 305 301 299 293 290 286 281 279 275
315 316 313 311 312 315 319 322 323 324 326 325 326 328 328 325 321 319 317 318 322 329 332 327 328 332 334 330 327 324 320 317 318 319 312 306 300 297 295 293 291 289 283 277
314 316 317 319 319 319 318 318 318 319 322 321 319 321 324 326 326 326 326 325 324 323 322 323 326 326 325 324 321 319 318 318 316 314 312 308 303 297 295 293 290 288 288 285
Height
1458 1455 1456 1456 1456 1456 1457 1455 1455 1449 1449 1450 1451 1450 1449 1447 1447 1446 1446 1445 1445 1444 1444 1443 1443 1444 1444 1445 1446 1447 1449 1450 1451 1452 1454 1455 1456 1457 1458 1459 1460 1461 1462 1462
1459 1454 1454 1454 1454 1454 1454 1454 1453 1451 1450 1451 1452 1450 1449 1448 1447 1446 1446 1445 1444 1443 1442 1442 1442 1442 1442 1442 1443 1444 1445 1446 1448 1449 1450 1451 1452 1453 1453 1454 1455 1456 1457 1458
1458 1453 1455 1455 1457 1457 1456 1457 1456 1455 1454 1451 1450 1450 1449 1448 1447 1447 1446 1445 1444 1443 1441 1441 1440 1440 1439 1440 1441 1442 1442 1443 1444 1445 1446 1447 1448 1449 1449 1450 1451 1452 1453 1453
1461 1458 1459 1459 1456 1455 1456 1457 1458 1456 1454 1453 1452 1449 1448 1448 1447 1446 1446 1445 1443 1442 1440 1439 1438 1438 1438 1438 1438 1439 1439 1440 1441 1441 1442 1443 1444 1444 1445 1446 1447 1447 1448 1449
1464 1462 1457 1457 1459 1460 1459 1457 1461 1459 1457 1455 1452 1447 1447 1447 1447 1446 1445 1444 1442 1440 1438 1437 1436 1436 1435 1435 1435 1436 1436 1436 1437 1438 1438 1439 1440 1441 1442 1442 1443 1443 1444 1444
1464 1463 1459 1464 1463 1460 1460 1459 1462 1460 1459 1456 1453 1451 1449 1448 1447 1445 1443 1442 1440 1438 1436 1435 1434 1434 1433 1433 1432 1432 1432 1433 1434 1435 1435 1435 1436 1437 1438 1439 1439 1439 1440 1441
1467 1465 1464 1469 1464 1460 1464 1464 1464 1461 1460 1458 1456 1455 1451 1448 1445 1444 1442 1440 1438 1436 1435 1434 1433 1432 1431 1430 1430 1430 1430 1430 1431 1431 1432 1432 1433 1434 1434 1435 1435 1436 1436 1437
1470 1467 1470 1470 1467 1470 1470 1467 1464 1462 1460 1457 1454 1451 1448 1446 1444 1441 1439 1437 1435 1434 1432 1432 1431 1430 1428 1428 1428 1428 1427 1427 1428 1428 1428 1429 1429 1430 1431 1431 1431 1432 1432 1433
1476 1476 1473 1471 1470 1470 1468 1465 1463 1460 1458 1456 1452 1449 1447 1444 1442 1439 1437 1435 1433 1431 1430 1429 1428 1427 1426 1425 1425 1425 1424 1424 1424 1425 1425 1425 1426 1426 1427 1427 1428 1428 1428 1429
1475 1472 1472 1471 1469 1468 1466 1464 1461 1459 1456 1453 1450 1447 1445 1442 1440 1437 1435 1433 1431 1429 1427 1426 1425 1425 1424 1423 1422 1422 1421 1421 1421 1421 1421 1422 1422 1423 1423 1423 1424 1424 1425 1425
1475 1474 1471 1469 1469 1467 1464 1462 1459 1456 1454 1451 1448 1446 1443 1440 1438 1435 1433 1431 1429 1427 1425 1424 1423 1421 1421 1420 1419 1419 1418 1418 1418 1418 1418 1418 1419 1419 1419 1420 1421 1421 1421 1421
1478 1476 1474 1470 1468 1465 1462 1460 1457 1454 1451 1449 1447 1444 1441 1438 1436 1433 1430 1428 1426 1425 1423 1421 1420 1419 1418 1417 1417 1416 1415 1415 1415 1415 1415 1415 1415 1416 1416 1417 1417 1418 1418 1418
1477 1474 1471 1469 1466 1464 1461 1458 1455 1453 1450 1447 1444 1442 1439 1436 1433 1430 1428 1426 1424 1422 1420 1418 1417 1416 1415 1414 1413 1413 1412 1412 1412 1412 1412 1412 1412 1412 1412 1412 1413 1413 1414 1414
1475 1472 1469 1467 1465 1462 1459 1456 1454 1451 1448 1445 1442 1439 1437 1433 1431 1428 1426 1424 1421 1419 1417 1416 1414 1413 1412 1411 1410 1409 1409 1409 1409 1409 1409 1409 1409 1409 1409 1408 1408 1408 1410 1410
1473 1471 1469 1466 1463 1460 1457 1454 1451 1448 1445 1443 1440 1438 1435 1432 1428 1426 1424 1421 1419 1417 1415 1413 1411 1410 1409 1408 1407 1406 1406 1406 1406 1406 1406 1406 1406 1406 1406 1405 1405 1405 1405 1406
1471 1469 1466 1463 1460 1457 1455 1452 1449 1446 1444 1441 1438 1436 1433 1430 1427 1424 1422 1419 1417 1415 1413 1411 1409 1408 1406 1405 1404 1403 1403 1403 1403 1402 1402 1402 1402 1402 1402 1402 1402 1402 1402 1402
1469 1466 1463 1461 1458 1455 1453 1450 1448 1445 1442 1439 1437 1434 1431 1428 1425 1422 1420 1418 1415 1413 1411 1409 1407 1406 1404 1402 1401 1400 1400 1399 1400 1399 1399 1399 1399 1399 1399 1399 1399 1398 1398 1398
1469 1467 1464 1461 1457 1454 1450 1448 1446 1443 1440 1438 1435 1432 1429 1426 1423 1420 1418 1415 1413 1411 1409 1407 1405 1404 1402 1400 1399 1398 1397 1397 1396 1396 1396 1396 1396 1396 1396 1395 1395 1395 1395 1395
1467 1464 1461 1459 1456 1453 1449 1447 1444 1441 1439 1436 1433 1430 1428 1425 1422 1419 1416 1414 1411 1408 1406 1405 1403 1402 1400 1398 1397 1396 1395 1394 1394 1393 1393 1393 1393 1393 1392 1392 1392 1391 1391 1391
1464 1462 1459 1457 1454 1451 1448 1445 1443 1440 1437 1434 1432 1429 1426 1423 1421 1418 1415 1412 1410 1408 1405 1403 1401 1400 1398 1396 1395 1394 1393 1392 1391 1391 1390 1390 1390 1389 1389 1389 1388 1388 1388 1387
1462 1460 1457 1455 1452 1449 1447 1444 1441 1438 1436 1433 1430 1427 1424 1422 1419 1416 1413 1411 1409 1406 1404 1402 1400 1398 1396 1395 1393 1392 1391 1390 1389 1388 1387 1387 1387 1386 1386 1386 1385 1384 1384 1383
1461 1458 1456 1453 1450 1447 1445 1442 1440 1437 1434 1431 1429 1426 1423 1420 1418 1415 1413 1411 1407 1405 1403 1400 1398 1397 1395 1393 1391 1390 1389 1387 1386 1385 1385 1384 1384 1383 1383 1382 1382 1381 1381 1380
1459 1457 1454 1452 1449 1446 1443 1441 1438 1435 1432 1430 1427 1424 1422 1419 1416 1414 1411 1409 1406 1404 1401 1399 1397 1395 1393 1391 1390 1388 1386 1385 1384 1383 1382 1381 1381 1380 1380 1379 1378 1378 1377 1376
1457 1455 1453 1450 1447 1444 1441 1439 1436 1434 1431 1429 1426 1423 1420 1417 1415 1413 1410 1407 1405 1402 1400 1397 1395 1393 1391 1389 1388 1386 1384 1383 1382 1381 1380 1379 1378 1377 1376 1376 1375 1374 1373 1373
1455 1453 1450 1448 1445 1442 1440 1437 1435 1432 1429 1427 1424 1422 1419 1417 1414 1411 1408 1406 1403 1401 1398 1396 1394 1392 1389 1387 1386 1384 1382 1381 1379 1378 1377 1376 1375 1374 1373 1372 1372 1371 1370 1369
1453 1451 1449 1446 1444 1441 1438 1436 1433 1430 1428 1425 1422 1420 1417 1415 1412 1409 1407 1404 1402 1399 1397 1394 1392 1389 1387 1385 1384 1382 1380 1379 1377 1376 1375 1373 1372 1371 1370 1369 1368 1367 1366 1365
1451 1449 1446 1444 1441 1439 1437 1434 1431 1429 1426 1423 1420 1418 1415 1412 1410 1407 1405 1402 1400 1397 1395 1392 1390 1388 1386 1384 1382 1380 1378 1376 1375 1373 1372 1371 1370 1368 1367 1366 1365 1364 1363 1361